Location: Boullarre
(49.1305°N, 3.0047°E)
Time: 19:46:04
(UTC+00:00)

ISS - Pass Details

Date: 23 September 2024
Orbit: 411 x 423 km, 51.6° (Epoch: 14 October)

Event Time Altitude Azimuth Distance (km) Brightness Sun altitude
Rises 19:26:16 0° 288° (WNW) 2,370 1.8 -17.4°
Reaches altitude 10° 19:28:22 10° 289° (WNW) 1,507 0.4 -17.7°
Maximum altitude 19:31:45 82° 16° (NNE) 431 -3.8 -18.2°
Enters shadow 19:32:15 62° 93° (E) 479 -3.8 -18.3°
